Effective Sunday, March 17, 2024, the National Weather Service National Data Buoy Center will discontinue its Dial-A-Buoy Interactive Voice Response system. For more information, see Service Change Notice 24-06 (PDF).

Station 46070 (LLNR 1198.1) - SOUTHWEST BERING SEA - 142NM NNE OF ATTU IS, AK Image indicating link to RSS feed of recent meteorological observations for station 46070


Conditions at 46070 as of
(9:30 am HAST)
1930 GMT on 03/03/2024:
     

Click on the graph icon in the table below to see a time series plot of the last five days of that observation.

5-day plot - Wind Direction Wind Direction (WDIR): SW ( 220 deg true )
5-day plot - Wind Speed Wind Speed (WSPD): 19.4 kts
5-day plot - Wind Gust Wind Gust (GST): 23.3 kts
5-day plot - Atmospheric Pressure Atmospheric Pressure (PRES):29.24 in
5-day plot - Air Temperature Air Temperature (ATMP): 33.1 °F
5-day plot - Water Temperature Water Temperature (WTMP): 36.1 °F
5-day plot - Dew Point Dew Point (DEWP): 28.6 °F
5-day plot - Wind Chill Wind Chill (CHILL): 20.8 °F
5-day plot - Wind Speed at 10 Meters Wind Speed at 10 meters (WSPD10M): 19.4 kts
5-day plot - Wind Speed at 20 Meters Wind Speed at 20 meters (WSPD20M): 21.4 kts
5-day plot -  Wind Speed, Wind Gust and Atmospheric Pressure Combined plot of Wind Speed, Gust, and Air Pressure
Supplemental Measurements
Highest 1-minute Wind Speed
Time (HAST)5-day plot - 1-Minute Wind Speed WSPD 5-day plot - 1-Minute Wind Direction WDIR
9:22 am 19.4 kts-
Previous observations
TIME
(HAST)
5-day plot - Wind Direction
WDIR
 
5-day plot - Wind Speed
WSPD
kts
5-day plot - Wind Gust
GST
kts
5-day plot - Wave Height
WVHT
ft
5-day plot - Dominant Wave Period
DPD
sec
5-day plot - Average Wave Period
APD
sec
5-day plot - Mean Wave Direction
MWD
 
5-day plot - Atmospheric Pressure
PRES
in
5-day plot - Pressure Tendency
PTDY
in
5-day plot - Air Temperature
ATMP
°F
5-day plot - Water Temperature
WTMP
°F
5-day plot - Dew Point
DEWP
°F
5-day plot - Salinity
SAL
psu
5-day plot - Visibility
VIS
nmi
5-day plot - Tide (above MLLW)
TIDE
ft
2024-03-03 09:20 amWSW 19.4 25.3 9.5 96.7SSW29.24- 34.0 36.1 27.1---
2024-03-03 09:10 amWSW 17.5 23.3 9.5-6.7SSW29.24- 33.8 36.1 27.0---
2024-03-03 09:00 amWSW 17.5 23.3----29.24+0.04 33.8 36.1 27.0---
2024-03-03 08:50 amWSW 17.5 21.4 10.5 116.6ESE29.24- 33.8 36.1 27.5---
2024-03-03 08:40 amWSW 19.4 23.3 10.5-6.6ESE29.24- 33.4 36.1 27.3---
2024-03-03 08:30 amWSW 19.4 23.3----29.23- 33.3 36.1 28.4---
2024-03-03 08:20 amWSW 19.4 25.3 9.5 96.2 SW29.23- 33.1 36.1 28.4---
2024-03-03 08:10 amWSW 21.4 27.2 9.5-6.2 SW29.23- 33.8 36.1 27.7---
2024-03-03 08:00 amWSW 21.4 25.3----29.23+0.05 34.2 36.1 26.1---
2024-03-03 07:50 amWSW 21.4 27.2 10.8 106.5 S29.23- 34.2 36.1 26.6---
2024-03-03 07:40 amWSW 23.3 27.2----29.22- 34.0 36.1 26.1---
2024-03-03 07:30 amWSW 19.4 25.3----29.22- 34.2 36.1 27.1---
2024-03-03 07:20 amWSW 21.4 27.2 10.2 116.6SSE29.21- 34.0 36.1 26.4---
2024-03-03 07:10 amWSW 21.4 29.1 10.2-6.6SSE29.21- 34.0 36.1 27.5---
2024-03-03 07:00 am W 19.4 23.3----29.21+0.06 33.4 36.1 29.7---
2024-03-03 06:50 amWSW 19.4 25.3 9.5 116.3ENE29.21- 33.6 36.1 28.9---
2024-03-03 06:40 amWSW 19.4 27.2 9.5-6.3ENE29.21- 33.8 36.1 28.8---
2024-03-03 06:30 amWSW 21.4 29.1----29.21- 33.3 36.1 27.3---
2024-03-03 06:20 amWSW 25.3 29.1 9.5 116.1 E29.20- 33.4 36.1 28.6---
2024-03-03 06:10 am W 23.3 29.1 9.5-6.1 E29.20- 33.6 36.1 28.8---
2024-03-03 06:00 am W 23.3 31.1----29.20+0.07 33.1 36.1 28.4---
2024-03-03 05:50 am W 23.3 31.1 10.2 116.5ENE29.19- 32.5 36.1 29.1---
2024-03-03 05:40 amWSW 23.3 31.1 10.2-6.5ENE29.19- 32.7 36.1 30.2---
2024-03-03 05:30 am W 23.3 29.1----29.19- 32.9 36.1 30.2---
2024-03-03 05:20 am W 23.3 29.1 8.9 116.5ENE29.19- 32.5 36.1 30.6---
2024-03-03 05:10 am W 21.4 29.1 8.9-6.5ENE29.18- 32.9 36.1 31.1---
2024-03-03 05:00 amWSW 25.3 31.1----29.18+0.08 33.3 36.1 30.7---
2024-03-03 04:50 am W 23.3 29.1 8.9 126.4ENE29.17- 33.4 36.1 31.1---
2024-03-03 04:40 am W 21.4 29.1----29.17- 33.1 36.1 31.3---
2024-03-03 04:30 am W 21.4 29.1----29.17- 33.1 36.1 31.5---
2024-03-03 04:20 am W 21.4 27.2 8.9 126.7 E29.16- 33.1 36.1 31.3---
2024-03-03 04:10 am W 21.4 29.1----29.16- 33.4 36.1 32.0---
2024-03-03 04:00 am W 19.4 25.3----29.15+0.09 33.4 36.1 32.0---
2024-03-03 03:50 am W 19.4 25.3 9.5 126.8 E29.15- 33.8 36.1 31.8---
2024-03-03 03:40 am W 19.4 25.3----29.15- 34.2 36.1 32.0---
2024-03-03 03:30 am W 21.4 27.2----29.14- 34.0 36.1 31.8---
2024-03-03 03:20 am W 21.4 25.3 9.2 116.7ENE29.14- 34.0 36.1 32.2---
2024-03-03 03:10 am W 21.4 27.2 9.2-6.7ENE29.13- 34.0 36.1 32.5---
2024-03-03 03:00 am W 19.4 25.3----29.13+0.10 34.2 36.1 32.5---
2024-03-03 02:50 am W 19.4 25.3 9.5 116.8 E29.13- 34.2 36.1 32.5---
2024-03-03 02:40 am W 19.4 25.3 9.5-6.8 E29.12- 34.2 36.1 32.5---
2024-03-03 02:30 am W 21.4 27.2----29.11- 34.2 36.1 32.5---
2024-03-03 02:20 am W 21.4 27.2 9.5 116.9ENE29.11- 34.0 36.1 32.5---
2024-03-03 02:10 am W 21.4 29.1 9.5-6.9ENE29.10- 34.0 36.1 32.9---
2024-03-03 02:00 am W 21.4 27.2----29.09+0.08 34.0 36.1 32.9---
2024-03-03 01:50 am W 21.4 27.2 9.5 117.3 E29.09- 34.0 36.1 32.9---
2024-03-03 01:40 am W 21.4 27.2----29.08- 34.0 36.1 32.9---
2024-03-03 01:30 amWNW 19.4 25.3----29.08- 34.0 36.1 32.9---
2024-03-03 01:20 amWNW 19.4 25.3 9.5 117.4 E29.07- 34.0 36.1 32.9---
2024-03-03 01:10 amWNW 17.5 23.3 9.5-7.4 E29.06- 34.2 36.1 33.1---
2024-03-03 01:00 amWNW 17.5 23.3----29.06+0.06 34.2 36.1 33.3---
2024-03-03 12:50 amWNW 17.5 21.4 9.2 117.4SSE29.06- 34.2 36.1 33.3---
2024-03-03 12:40 amWNW 15.5 19.4----29.05- 34.2 36.1 33.3---
2024-03-03 12:30 amWNW 15.5 19.4----29.05- 34.2 36.1 33.1---
2024-03-03 12:20 am NW 15.5 19.4 10.2 117.6ENE29.04- 34.3 36.1 33.3---
2024-03-03 12:10 am NW 13.6 19.4 10.2-7.6ENE29.04- 34.3 36.1 33.3---
2024-03-03 12:00 am NW 13.6 19.4----29.03+0.01 34.3 36.1 33.3---
2024-03-02 11:50 pmNNW 13.6 17.5 9.8 117.4ESE29.03- 34.5 36.1 33.4---
2024-03-02 11:40 pmNNW 13.6 17.5----29.03- 34.5 36.1 33.4---
2024-03-02 11:30 pm N 11.7 15.5----29.02- 34.7 36.1 33.6---
2024-03-02 11:20 pm N 11.7 17.5 9.5 107.3 E29.02- 34.5 36.1 33.4---
2024-03-02 11:10 pm N 11.7 15.5 9.5-7.3 E29.01- 34.5 36.1 33.6---
2024-03-02 11:00 pm N 11.7 15.5----29.01-0.02 34.5 36.1 33.6---
2024-03-02 10:50 pm N 11.7 15.5 10.2 117.8ENE29.01- 34.5 36.1 33.6---
2024-03-02 10:40 pmNNE 11.7 15.5----29.01- 34.5 36.1 33.6---
2024-03-02 10:30 pmNNE 11.7 15.5----29.01- 34.3 36.1 33.4---
2024-03-02 10:20 pmNNE 11.7 15.5 10.5 117.8ENE29.00- 34.3 36.1 33.4---
2024-03-02 10:10 pmNNE 11.7 15.5 10.5-7.8ENE29.00- 34.2 36.1 33.3---
2024-03-02 10:00 pm NE 13.6 17.5----29.01-0.06 34.2 36.1 33.3---
2024-03-02 09:50 pm NE 13.6 19.4 10.5 117.6ENE29.01- 34.2 36.1 33.3---
2024-03-02 09:40 pm NE 13.6 19.4----29.01- 34.0 36.1 33.1---
2024-03-02 09:30 pm NE 13.6 19.4----29.01- 33.8 36.1 32.9---
2024-03-02 09:20 pm NE 13.6 19.4 10.8 117.9 E29.02- 33.8 36.1 32.9---
2024-03-02 09:10 pm NE 15.5 19.4 10.8-7.9 E29.02- 34.0 36.1 33.1---
2024-03-02 09:00 pmENE 15.5 19.4----29.02-0.08 34.0 36.1 33.1---
2024-03-02 08:50 pm NE 15.5 21.4 10.2 117.8 E29.02- 34.2 36.1 33.1---
2024-03-02 08:40 pm NE 15.5 21.4----29.03- 34.2 36.1 33.1---
2024-03-02 08:30 pmENE 15.5 21.4----29.03- 34.2 36.1 33.1---
2024-03-02 08:20 pmENE 17.5 21.4 9.5 117.7 E29.03- 34.2 36.1 33.1---
2024-03-02 08:10 pmENE 17.5 21.4 9.5-7.7 E29.03- 34.2 36.1 33.1---
2024-03-02 08:00 pmENE 17.5 21.4----29.03-0.11 34.2 36.1 33.3---
2024-03-02 07:50 pm NE 15.5 21.4 9.8 117.9 E29.04- 33.8 36.1 32.9---
2024-03-02 07:40 pm NE 15.5 21.4----29.04- 33.8 36.1 32.9---
2024-03-02 07:30 pmENE 15.5 21.4----29.05- 33.6 36.1 32.7---
2024-03-02 07:20 pmENE 15.5 19.4 9.8 118.1ENE29.05- 33.8 36.1 32.9---
2024-03-02 07:10 pmENE 15.5 19.4 9.8-8.1ENE29.06- 33.8 36.1 32.7---
2024-03-02 07:00 pmENE 15.5 21.4----29.06-0.12 34.0 36.1 32.9---
2024-03-02 06:50 pm E 15.5 19.4 10.2 118.2 E29.07- 33.8 36.1 32.9---
2024-03-02 06:40 pm E 13.6 17.5 10.2-8.2 E29.08- 33.6 36.1 32.7---
2024-03-02 06:30 pm E 13.6 19.4----29.08- 33.8 36.3 32.7---
2024-03-02 06:20 pmENE 13.6 17.5 11.2 128.4ENE29.09- 33.8 36.3 32.7---
2024-03-02 06:10 pm E 13.6 17.5 11.2-8.4ENE29.10- 33.8 36.3 32.7---
2024-03-02 06:00 pm E 13.6 17.5----29.10-0.12 34.0 36.3 32.7---
2024-03-02 05:50 pm E 15.5 19.4 11.2 108.4 SE29.11- 34.0 36.3 32.5---
2024-03-02 05:40 pm E 13.6 19.4----29.12- 34.0 36.3 32.7---
2024-03-02 05:30 pm E 13.6 17.5----29.12- 33.8 36.3 32.4---
2024-03-02 05:20 pm E 13.6 17.5 11.2 118.8 E29.13- 34.0 36.3 32.5---
2024-03-02 05:10 pm E 13.6 17.5 11.2-8.8 E29.14- 34.0 36.3 32.5---
2024-03-02 05:00 pm E 13.6 17.5----29.14-0.12 34.0 36.3 32.4---
2024-03-02 04:50 pm E 13.6 17.5 10.8 128.6ENE29.15- 34.0 36.3 32.4---
2024-03-02 04:40 pm E 13.6 17.5----29.16- 34.0 36.3 32.4---
2024-03-02 04:30 pmESE 13.6 17.5----29.16- 34.0 36.3 32.2---
2024-03-02 04:20 pmESE 13.6 17.5 10.5 118.4 E29.17- 34.0 36.3 32.2---
2024-03-02 04:10 pmESE 13.6 17.5 10.5-8.4 E29.18- 34.2 36.3 32.0---
2024-03-02 04:00 pmESE 13.6 17.5----29.18-0.11 34.2 36.3 32.0---
2024-03-02 03:50 pmESE 11.7 15.5 10.8 128.2 E29.19- 33.6 36.3 31.8---
2024-03-02 03:40 pmESE 13.6 17.5----29.19- 34.2 36.3 31.6---
2024-03-02 03:30 pmESE 11.7 17.5----29.20- 34.5 36.3 31.6---
2024-03-02 03:20 pmESE 13.6 17.5 11.5 128.5 E29.21- 34.5 36.3 31.1---
2024-03-02 03:10 pmESE 11.7 15.5 11.5-8.5 E29.21- 34.3 36.3 31.3---
2024-03-02 03:00 pmESE 11.7 15.5----29.22-0.10 34.3 36.3 31.3---
2024-03-02 02:50 pmESE 11.7 13.6 11.5 128.6ENE29.23- 34.3 36.3 30.9---
2024-03-02 02:40 pmESE 11.7 15.5----29.23- 34.3 36.3 30.7---
2024-03-02 02:30 pmESE 11.7 15.5----29.24- 34.3 36.3 30.4---
2024-03-02 02:20 pm SE 13.6 15.5 10.8 118.2 E29.25- 34.5 36.3 30.7---
2024-03-02 02:10 pm SE 11.7 15.5 10.8-8.2 E29.25- 34.7 36.3 30.2---
2024-03-02 02:00 pm SE 9.7 13.6----29.26-0.07 34.5 36.3 30.0---
2024-03-02 01:50 pmSSE 13.6 17.5 10.5 128.3 E29.27- 34.7 36.5 29.7---
2024-03-02 01:40 pm SE 11.7 15.5----29.28- 34.9 36.5 29.1---
2024-03-02 01:10 pmSSE 11.7 15.5 10.5-8.3 E29.29- 34.9 36.5 28.9---
2024-03-02 01:00 pmSSE 11.7 15.5----29.29-0.05 34.9 36.5 28.8---
2024-03-02 12:50 pmSSE 9.7 13.6 12.5 128.9 E29.30- 34.7 36.5 29.5---
2024-03-02 12:40 pm SE 7.8 9.7----29.30- 34.3 36.5 30.4---
2024-03-02 12:30 pm SE 7.8 9.7----29.31- 34.0 36.5 30.7---
2024-03-02 12:20 pmSSE 7.8 9.7 10.2 128.4 E29.31- 33.8 36.5 30.6---
2024-03-02 12:10 pmSSE 7.8 9.7 10.2-8.4 E29.31- 33.6 36.5 30.6---
2024-03-02 12:00 pm S 7.8 11.7----29.32-0.04 33.4 36.5 30.2---
2024-03-02 11:50 am S 7.8 11.7 11.5 128.6 E29.32- 33.4 36.5 30.0---
2024-03-02 11:40 am S 7.8 13.6 11.5-8.6 E29.32- 33.3 36.5 29.8---
2024-03-02 11:30 am S 7.8 11.7----29.33- 33.3 36.5 29.7---
2024-03-02 11:20 am S 5.8 9.7 11.5 128.5ENE29.33- 33.1 36.5 29.7---
2024-03-02 11:10 amSSW 7.8 11.7 11.5-8.5ENE29.33- 32.7 36.5 30.2---
2024-03-02 11:00 am S 9.7 11.7----29.33-0.03 32.4 36.5 30.2---
2024-03-02 10:50 am S 9.7 15.5 11.2 118.1 E29.34- 32.2 36.5 30.4---
2024-03-02 10:40 amSSE 9.7 13.6 11.2-8.1 E29.34- 32.2 36.5 30.6---
2024-03-02 10:30 am S 11.7 15.5----29.34- 32.5 36.5 30.2---
2024-03-02 10:20 am S 11.7 17.5 11.8 128.5ENE29.34- 33.4 36.5 29.8---
2024-03-02 10:10 amSSW 7.8 15.5 11.8-8.5ENE29.34- 34.3 36.5 29.8---
2024-03-02 10:00 amSSW 9.7 13.6----29.34-0.02 34.3- 29.8---
2024-03-02 09:50 am SW 9.7 13.6 11.2 118.2ENE29.34- 34.3 36.5 29.8---
2024-03-02 09:40 am SW 9.7 11.7----29.35- 34.2 36.5 29.7---
2024-03-02 09:30 am SW 9.7 13.6----29.35- 34.3 36.5 30.0---
2024-03-02 09:20 am SW 9.7 13.6 11.8 118.3 E29.35- 34.9 36.5 29.1---
2024-03-02 09:10 amSSW 9.7 13.6 11.8-8.3 E29.35- 34.9 36.5 28.8---
2024-03-02 09:00 am SW 9.7 15.5----29.35-0.01 34.7 36.5 28.4---
2024-03-02 08:50 am SW 11.7 17.5 12.1-8.4ENE29.35- 34.7 36.5 29.3---

Detailed Wave Summary
for 46070 as of (9:10 am HAST)
1910 GMT on 03/03/2024:

These wave data are displayed in rounded times.

     

Click on the graph icon in the table below to see a time series plot of the last five days of that observation.

5-day plot - Significant Wave Height Significant Wave Height (WVHT): 9.5 ft
5-day plot - Swell Height Swell Height (SwH): 5.2 ft
5-day plot - Swell Period Swell Period (SwP): 10.8 sec
5-day plot - Swell Direction Swell Direction (SwD): SE
5-day plot - Wind Wave Height Wind Wave Height (WWH): 8.2 ft
5-day plot - Wind Wave Period Wind Wave Period (WWP): 9.1 sec
5-day plot - Wind Wave Direction Wind Wave Direction (WWD):SSW
5-day plot - Wave Steepness Wave Steepness (STEEPNESS): STEEP
5-day plot - Average Wave Period Average Wave Period (APD): 6.7 sec
Previous observations
TIME
(HAST)
5-day plot - Wave Height
WVHT
ft
5-day plot - Swell Height
SwH
ft
5-day plot - Swell Period
SwP
sec
5-day plot - Swell Direction
SwD
 
5-day plot - Wind Wave Height
WWH
ft
5-day plot - Wind Wave Period
WWP
sec
5-day plot - Wind Wave Direction
WWD
 
5-day plot - Wave Steepness
STEEPNESS
 
5-day plot - Average Wave Period
APD
sec
2024-03-03 08:40 am 10.5 5.9 11.4ESE 8.5 6.7 WSW AVERAGE 6.6
2024-03-03 08:10 am 9.5 5.6 9.1 SW 7.9 6.7 WSW STEEP 6.2
2024-03-03 07:40 am 10.8 5.9 10.0 S 8.9 6.7 WSW AVERAGE 6.5
2024-03-03 07:10 am 10.2 6.9 10.8SSE 7.9 7.7 SSW AVERAGE 6.6
2024-03-03 06:40 am 9.5 5.2 10.8ENE 8.2 9.1 SW AVERAGE 6.3
2024-03-03 06:10 am 9.5 5.6 10.8 E 7.5 5.9 WSW AVERAGE 6.1
2024-03-03 05:40 am 10.2 7.2 11.4ENE 7.2 8.3 SSW AVERAGE 6.5
2024-03-03 05:10 am 8.9 6.6 11.4ENE 5.9 7.7 S SWELL 6.5
2024-03-03 04:40 am 8.9 6.6 12.1ENE 5.9 7.1 SSE SWELL 6.4
2024-03-03 04:10 am 8.9 6.9 12.1 E 5.6 6.7 SW SWELL 6.7
2024-03-03 03:40 am 9.5 7.9 12.1 E 5.2 7.1 SSE SWELL 6.8
2024-03-03 03:10 am 9.2 7.5 11.4ENE 4.9 5.0 W SWELL 6.7
2024-03-03 02:40 am 9.5 7.9 11.4 E 5.2 5.3 W SWELL 6.8
2024-03-03 02:10 am 9.5 8.2 11.4ENE 4.6 6.2 E SWELL 6.9
2024-03-03 01:40 am 9.5 8.5 11.4 E 3.6 4.8 NE SWELL 7.3
2024-03-03 01:10 am 9.5 7.9 11.4 E 5.2 6.7 SE SWELL 7.4
2024-03-03 12:40 am 9.2 7.5 10.8SSE 5.2 6.2 SE AVERAGE 7.4
2024-03-03 12:10 am 10.2 9.2 10.8ENE 4.3 5.3 ESE AVERAGE 7.6
2024-03-02 11:40 pm 9.8 8.9 10.8ESE 4.3 5.3 SE AVERAGE 7.4
2024-03-02 11:10 pm 9.5 8.9 10.0 E 3.6 5.3 SE AVERAGE 7.3
2024-03-02 10:40 pm 10.2 9.5 11.4ENE 3.6 5.6 SE AVERAGE 7.8
2024-03-02 10:10 pm 10.5 9.8 10.8ENE 3.9 5.6 SE AVERAGE 7.8
2024-03-02 09:40 pm 10.5 9.5 11.4ENE 4.6 5.0 ESE AVERAGE 7.6
2024-03-02 09:10 pm 10.8 9.5 11.4 E 4.9 4.5 ESE AVERAGE 7.9
2024-03-02 08:40 pm 10.2 9.2 11.4 E 4.3 6.2 S SWELL 7.8
2024-03-02 08:10 pm 9.5 8.9 11.4 E 3.6 5.6 SSE SWELL 7.7
2024-03-02 07:40 pm 9.8 9.2 11.4 E 3.6 4.8 SSE SWELL 7.9
2024-03-02 07:10 pm 9.8 9.2 11.4ENE 3.6 5.3 SSE SWELL 8.1
2024-03-02 06:40 pm 10.2 9.5 10.8 E 3.6 6.2 SSW AVERAGE 8.2
2024-03-02 06:10 pm 11.2 10.5 12.1ENE 3.9 5.9 SSW SWELL 8.4
2024-03-02 05:40 pm 11.2 10.5 10.0 SE 3.9 5.0 SSW AVERAGE 8.4
2024-03-02 05:10 pm 11.2 10.8 11.4 E 3.0 5.6 SW AVERAGE 8.8
2024-03-02 04:40 pm 10.8 10.5 12.1ENE 3.0 4.8 SW SWELL 8.6
2024-03-02 04:10 pm 10.5 9.8 11.4 E 3.3 6.2 SSW AVERAGE 8.4
2024-03-02 03:40 pm 10.8 9.8 12.1 E 4.3 5.9 SW SWELL 8.2
2024-03-02 03:10 pm 11.5 11.2 12.1 E 3.0 5.0 SW SWELL 8.5
2024-03-02 02:40 pm 11.5 11.2 12.1ENE 2.6 5.3 SSW SWELL 8.6
2024-03-02 02:10 pm 10.8 10.5 10.8 E 2.6 5.3 SSW AVERAGE 8.2
2024-03-02 01:40 pm 10.5 9.8 12.1 E 3.0 4.8 SW SWELL 8.3
2024-03-02 01:10 pm 10.5 10.2 12.1 E 2.6 5.0 SSW SWELL 8.3
2024-03-02 12:40 pm 12.5 12.5 12.1 E 1.3 3.8 SW AVERAGE 8.9
2024-03-02 12:10 pm 10.2 10.2 12.1 E 1.6 4.0 SW SWELL 8.4
2024-03-02 11:40 am 11.5 11.5 12.1 E 1.6 3.8 WSW SWELL 8.6
2024-03-02 11:10 am 11.5 11.2 12.1ENE 1.6 3.6 SW SWELL 8.5
2024-03-02 10:40 am 11.2 10.8 11.4 E 2.6 4.8 SW AVERAGE 8.1
2024-03-02 10:10 am 11.8 11.8 12.1ENE 1.6 4.0 WSW SWELL 8.5
2024-03-02 09:40 am 11.2 10.8 11.4ENE 2.0 3.7 SW AVERAGE 8.2
2024-03-02 09:10 am 11.8 11.5 11.4 E 2.6 4.8 WSW AVERAGE 8.3

Plot of wave energy versus frequency (and period)